This is the latest recevied weather packets stored in our database for station/object K8JMX-13. If no packets are shown the sender has not sent any weather packets the latest 10 day(s).
| Time | Temp. | Humidity | Pressure | Rain* | Wind** | Luminosity | Snow |
|---|---|---|---|---|---|---|---|
| 1777349243 | 16.67° C | 90% | 1009.9 hPa | 0 mm | - | 0 W/m² | - |
| 1777348941 | 16.11° C | 91% | 1009.8 hPa | 0 mm | - | 0 W/m² | - |
| 1777348638 | 16.11° C | 91% | 1009.8 hPa | 0 mm | - | 0 W/m² | - |
| 1777348335 | 16.11° C | 92% | 1009.9 hPa | 0 mm | - | 0 W/m² | - |
| 1777348033 | 16.67° C | 92% | 1009.8 hPa | 0 mm | - | 0 W/m² | - |
| 1777347732 | 16.67° C | 92% | 1009.8 hPa | 1.78 mm | - | 0 W/m² | - |
| 1777347429 | 16.67° C | 92% | 1010.1 hPa | 1.78 mm | - | 0 W/m² | - |
| 1777347123 | 16.67° C | 92% | 1010.6 hPa | 1.27 mm | - | 0 W/m² | - |
| 1777346819 | 16.67° C | 92% | 1010.5 hPa | 3.05 mm | - | 0 W/m² | - |
| 1777346517 | 17.22° C | 92% | 1011 hPa | 3.05 mm | - | 0 W/m² | - |
| 1777346213 | 16.67° C | 92% | 1011.2 hPa | 3.05 mm | - | 0 W/m² | - |
| 1777345911 | 16.67° C | 92% | 1011.9 hPa | 3.05 mm | - | 0 W/m² | - |
| 1777345608 | 16.67° C | 92% | 1012.4 hPa | 1.27 mm | - | 0 W/m² | - |
| 1777345304 | 16.67° C | 92% | 1012.3 hPa | 0 mm | - | 0 W/m² | - |
| 1777345001 | 16.67° C | 92% | 1012.7 hPa | 0 mm | - | 0 W/m² | - |
| 1777344697 | 16.67° C | 91% | 1012.8 hPa | 1.78 mm | - | 0 W/m² | - |
| 1777344393 | 17.22° C | 91% | 1013.1 hPa | 1.78 mm | - | 0 W/m² | - |
| 1777344092 | 17.22° C | 91% | 1013.2 hPa | 0 mm | - | 0 W/m² | - |
| 1777343788 | 16.67° C | 91% | 1013.3 hPa | 1.27 mm | - | 0 W/m² | - |
| 1777343486 | 16.67° C | 91% | 1013.4 hPa | 1.27 mm | - | 0 W/m² | - |
| 1777343183 | 16.67° C | 91% | 1013.2 hPa | 0 mm | - | 0 W/m² | - |
| 1777342881 | 17.22° C | 91% | 1013.6 hPa | 1.78 mm | - | 0 W/m² | - |
| 1777342577 | 17.22° C | 90% | 1013.8 hPa | 1.78 mm | - | 0 W/m² | - |
| 1777342274 | 17.22° C | 90% | 1013.7 hPa | 1.78 mm | - | 0 W/m² | - |
| 1777341971 | 17.22° C | 90% | 1013.9 hPa | 1.27 mm | - | 0 W/m² | - |
* Rain latest hour (hover to see other rain measurements)
** Current wind speed in m/s (hover to see current wind gust speed)